Regional Weather Roundup
Issued by NWS

Home | Current Version | Previous Version | Graphics & Text | Print | Product List | Glossary On
Versions: 1 2 3 4 5 6 7 8 9 10 11 12 13 14 15 16 17 18 19 20 21 22 23 24 25 26 27 28 29 30 31 32 33 34 35 36 37 38 39 40 41 42 43 44 45 46 47 48 49 50
000
ASUS45 KPSR 260510
RWRAZ

ARIZONA HOURLY REGIONAL WEATHER ROUNDUP
NATIONAL WEATHER SERVICE PHOENIX AZ
1000 PM MST WED APR 25 2018

NOTE: FAIR INDICATES FEW OR NO CLOUDS BELOW 12,000 FEET WITH NO
SIGNIFICANT WEATHER AND/OR OBSTRUCTIONS TO VISIBILITY.

AZZ001>003-036-260600-
NORTHWEST ARIZONA

CITY           SKY/WX    TMP DP  RH WIND       PRES   REMARKS
BULLHEAD CITY  CLEAR     86  18   8 CALM      29.82S
KINGMAN        CLEAR     69  19  15 SE3       30.02S
$$

AZZ004>008-015-016-018-260600-
NORTH CENTRAL ARIZONA

CITY           SKY/WX    TMP DP  RH WIND       PRES   REMARKS
GRAND CANYON   PTCLDY    45  14  28 E3        30.22R HAZE
WILLIAMS       CLEAR     52  14  22 SE9       30.19S
PRESCOTT       CLEAR     69  21  16 W8        30.12R
FLAGSTAFF      CLEAR     44  17  33 CALM      30.24S
PAYSON         CLEAR     66  18  15 N3        30.13S
PAGE           MOCLDY    67  23  19 CALM      30.06R
$$

AZZ009>014-017-260600-
NORTHEAST ARIZONA

CITY           SKY/WX    TMP DP  RH WIND       PRES   REMARKS
WINSLOW        CLEAR     56  12  17 SW3       30.11S
SAINT JOHNS    CLEAR     55  20  25 CALM      30.14R
WINDOW ROCK    CLEAR     45   4  18 S5        30.21S
SHOW LOW       CLEAR     54  10  17 S5        30.21S
$$

AZZ540-542>544-546-548-260600-
GREATER PHOENIX AREA

CITY           SKY/WX    TMP DP  RH WIND       PRES   REMARKS
PHOENIX        MOCLDY    88  26  10 CALM      29.83S
BUCKEYE        PTCLDY    81  23  12 W7        29.85S
LUKE AFB       PTCLDY    80  35  20 W3        29.83S
DEER VALLEY    PTCLDY    81  20  10 CALM      29.86S
SCOTTSDALE     PTCLDY    84  32  15 NE5       29.88S
MESA-GATEWAY   PTCLDY    75  27  16 E8        29.88S
$$

AZZ539-553-260600-
SOUTHWEST MARICOPA COUNTY AND PINAL COUNTY

CITY           SKY/WX    TMP DP  RH WIND       PRES   REMARKS
CASA GRANDE    PTCLDY    81  23  11 NW6       29.88S
GILA BEND      FAIR      83  19   9 SW9       29.84R
$$

AZZ503-504-507>509-260600-
SOUTHEAST ARIZONA

CITY           SKY/WX    TMP DP  RH WIND       PRES   REMARKS
TUCSON         CLEAR     77  24  14 W7        29.98R
DAVIS-MONTHAN  CLEAR     74  24  15 CALM      29.96R
NOGALES        CLEAR     73  29  19 CALM      30.07R
SIERRA VISTA   CLEAR     67  18  15 W6        30.11S
DOUGLAS        CLEAR     72  29  20 W7        30.06S
SAFFORD        CLEAR     76  16  10 NW10      29.95S
$$

AZZ532-260600-
SOUTHWEST ARIZONA

CITY           SKY/WX    TMP DP  RH WIND       PRES   REMARKS
YUMA           MOCLDY    82  45  27 SW8       29.85R
$$

CAZ041-043-047-048-061-525>527-560>570-260600-
SOUTHERN CALIFORNIA

CITY           SKY/WX    TMP DP  RH WIND       PRES   REMARKS
DOWNTOWN L.A.  MOCLDY    58  53  84 W5        30.04R
L.A. AIRPORT   CLOUDY    57  53  86 W12       30.05R
SAN DIEGO      MOCLDY    60  53  77 NW6       30.06S
BURBANK        CLEAR     60  52  74 SE6       30.02R
ONTARIO        PTCLDY    63  40  42 W9        30.03R
RIVERSIDE      CLEAR     63  48  58 W5        30.03R
PALM SPRINGS   PTCLDY    84  37  18 W22G29    29.87R
EL CENTRO NAS  PTCLDY    82  32  16 W17       29.85R
IMPERIAL       PTCLDY    79  38  22 W13       29.83R
BLYTHE         MOCLDY    88  30  12 SW12      29.83R
NEEDLES        CLEAR     92  16   6 W15       29.84R
$$

NVZ020-UTZ003-260600-
SOUTHERN NEVADA-UTAH

CITY           SKY/WX    TMP DP  RH WIND       PRES   REMARKS
LAS VEGAS      MOCLDY    85  24  11 W3        29.92R
SALT LAKE CITY PTCLDY    57  36  45 CALM      30.10R
$$

NMZ009-TXZ055-260600-
NEW MEXICO-WEST TEXAS

CITY           SKY/WX    TMP DP  RH WIND       PRES   REMARKS
ALBUQUERQUE    PTCLDY    59  28  30 SE7       30.10F
EL PASO        CLEAR     62  39  42 E10       30.09S
$$


........................KEY........................
SKY/WX - SKY CONDITION/WEATHER
TMP    - TEMPERATURE IN FAHRENHEIT
DP     - DEW POINT IN FAHRENHEIT
RH     - RELATIVE HUMIDITY IN PERCENT
WIND   - DIRECTION AND SPEED IN MILES PER HOUR (MPH)
VRB    - VARIABLE WIND DIRECTION
PRES   - MEAN SEA LEVEL PRESSURE IN INCHES OF MERCURY
         F - FALLING PRESSURE   R - RISING PRESSURE
         S - STEADY PRESSURE
VSB    - VISIBILITY IN MILES
HX     - HEAT INDEX IN FAHRENHEIT
WCI    - WIND CHILL INDEX IN FAHRENHEIT
TC     - TEMPERATURE IN CELSIUS WHICH IS ALSO KNOWN AS
         TEMPERATURE IN CENTIGRADE
AFB    - AIR FORCE BASE
         LUKE AFB IS LUKE AIR FORCE BASE
         DAVIS-MONTHAN IS DAVIS-MONTHAN AIR FORCE BASE
NAS    - NAVAL AIR STATION
         EL CENTRO NAS IS EL CENTRO NAVAL AIR STATION
N/A    - NOT AVAILABLE




USA.gov is the U.S. government's official web portal to all federal, state and local government web resources and services.